| time (UTC) | temp F | wind direction | speed MPH | gust MPH | rain 1hr in | rain 24hr in | rain mn in | humidity % | barometer mb |
| 20260506211322 | 52 | 13 | 2.0 | 5.0 | 0.07 | 0.61 | 0.60 | 94 | 1004.0 |
| 20260506205821 | 53 | 11 | 2.0 | 8.0 | 0.09 | 0.61 | 0.60 | 94 | 1003.9 |
| 20260506204322 | 54 | 320 | 2.0 | 8.0 | 0.10 | 0.62 | 0.60 | 92 | 1003.7 |
| 20260506203554 | 56 | 5 | 4.0 | 10.0 | 0.11 | 0.63 | 0.58 | 91 | 1003.5 |
| 20260506202057 | 60 | 173 | 0.0 | 0.0 | 0.07 | 0.66 | 0.53 | 97 | 1003.1 |
| 20260506200552 | 60 | 173 | 0.0 | 0.0 | 0.06 | 0.64 | 0.51 | 97 | 1003.0 |
| 20260506194313 | 60 | 173 | 0.0 | 0.0 | 0.06 | 0.63 | 0.50 | 97 | 1003.0 |
| 20260506193545 | 60 | 173 | 0.0 | 0.0 | 0.03 | 0.60 | 0.47 | 97 | 1003.1 |
| 20260506191311 | 60 | 173 | 0.0 | 2.0 | 0.03 | 0.59 | 0.46 | 98 | 1003.2 |
| 20260506190542 | 59 | 173 | 1.0 | 5.0 | 0.06 | 0.58 | 0.45 | 98 | 1003.3 |
| 20260506184311 | 58 | 171 | 0.0 | 4.0 | 0.09 | 0.57 | 0.44 | 97 | 1003.4 |
| 20260506183538 | 58 | 171 | 0.0 | 2.0 | 0.13 | 0.57 | 0.44 | 97 | 1003.6 |
| 20260506181305 | 58 | 171 | 0.0 | 5.0 | 0.17 | 0.56 | 0.43 | 97 | 1003.8 |
| 20260506175805 | 58 | 148 | 0.0 | 0.0 | 0.18 | 0.52 | 0.40 | 97 | 1004.1 |
| 20260506174306 | 58 | 148 | 0.0 | 1.0 | 0.17 | 0.48 | 0.35 | 96 | 1004.6 |
| 20260506172759 | 58 | 146 | 0.0 | 2.0 | 0.21 | 0.44 | 0.31 | 96 | 1004.6 |
| 20260506171259 | 58 | 144 | 0.0 | 3.0 | 0.18 | 0.39 | 0.26 | 96 | 1005.0 |
| 20260506165754 | 58 | 202 | 0.0 | 3.0 | 0.14 | 0.34 | 0.21 | 96 | 1004.8 |
| 20260506165025 | 58 | 187 | 0.0 | 4.0 | 0.12 | 0.31 | 0.18 | 95 | 1005.0 |
| 20260506162747 | 58 | 173 | 0.0 | 1.0 | 0.05 | 0.23 | 0.10 | 95 | 1004.8 |
| 20260506161249 | 58 | 67 | 0.0 | 2.0 | 0.04 | 0.21 | 0.08 | 95 | 1005.2 |
| 20260506155741 | 58 | 163 | 0.0 | 3.0 | 0.03 | 0.20 | 0.07 | 95 | 1005.3 |
| 20260506154243 | 57 | 167 | 0.0 | 6.0 | 0.03 | 0.19 | 0.06 | 95 | 1005.8 |
| 20260506152737 | 57 | 153 | 0.0 | 1.0 | 0.03 | 0.18 | 0.05 | 96 | 1006.1 |
| 20260506152007 | 57 | 160 | 0.0 | 2.0 | 0.03 | 0.17 | 0.04 | 95 | 1006.3 |
| 20260506145730 | 57 | 156 | 0.0 | 0.0 | 0.03 | 0.17 | 0.04 | 94 | 1006.4 |
| 20260506144232 | 57 | 167 | 0.0 | 4.0 | 0.02 | 0.16 | 0.03 | 93 | 1006.6 |
| 20260506142722 | 57 | 128 | 0.0 | 3.0 | 0.01 | 0.15 | 0.02 | 92 | 1006.5 |
| 20260506141225 | 57 | 167 | 0.0 | 4.0 | 0.00 | 0.14 | 0.01 | 91 | 1006.6 |
| 20260506135724 | 57 | 192 | 0.0 | 3.0 | 0.00 | 0.14 | 0.01 | 92 | 1006.4 |
| 20260506134222 | 56 | 137 | 0.0 | 4.0 | 0.00 | 0.14 | 0.01 | 93 | 1006.3 |
| 20260506132723 | 56 | 153 | 0.0 | 2.0 | 0.00 | 0.14 | 0.01 | 95 | 1006.4 |
| 20260506131220 | 55 | 144 | 0.0 | 2.0 | 0.00 | 0.14 | 0.01 | 97 | 1006.7 |
| 20260506125722 | 55 | 216 | 0.0 | 0.0 | 0.00 | 0.14 | 0.01 | 98 | 1007.1 |
| 20260506124222 | 54 | 312 | 0.0 | 0.0 | 0.00 | 0.14 | 0.01 | 98 | 1006.5 |
| 20260506122720 | 54 | 312 | 0.0 | 0.0 | 0.00 | 0.14 | 0.01 | 98 | 1006.9 |
| 20260506121221 | 54 | 312 | 0.0 | 0.0 | 0.00 | 0.14 | 0.01 | 98 | 1006.9 |
| 20260506120453 | 53 | 312 | 0.0 | 0.0 | 0.00 | 0.14 | 0.01 | 98 | 1006.9 |
| 20260506114222 | 53 | 312 | 0.0 | 0.0 | 0.00 | 0.14 | 0.01 | 98 | 1007.1 |
| 20260506112720 | 53 | 312 | 0.0 | 0.0 | 0.00 | 0.14 | 0.01 | 98 | 1006.9 |
| 20260506111220 | 52 | 312 | 0.0 | 0.0 | 0.00 | 0.14 | 0.01 | 98 | 1006.9 |
| 20260506110446 | 51 | 312 | 0.0 | 0.0 | 0.00 | 0.14 | 0.01 | 98 | 1006.9 |
| 20260506104216 | 51 | 312 | 0.0 | 0.0 | 0.00 | 0.14 | 0.01 | 97 | 1007.0 |
| 20260506102708 | 51 | 312 | 0.0 | 0.0 | 0.00 | 0.14 | 0.01 | 97 | 1006.9 |
| 20260506101207 | 51 | 312 | 0.0 | 0.0 | 0.00 | 0.14 | 0.01 | 97 | 1007.0 |
| 20260506095706 | 51 | 312 | 0.0 | 0.0 | 0.00 | 0.14 | 0.01 | 96 | 1007.0 |
| 20260506094202 | 51 | 312 | 0.0 | 0.0 | 0.00 | 0.14 | 0.01 | 96 | 1007.2 |
| 20260506092701 | 51 | 312 | 0.0 | 0.0 | 0.00 | 0.14 | 0.01 | 96 | 1007.0 |
| 20260506091201 | 52 | 312 | 0.0 | 0.0 | 0.00 | 0.14 | 0.01 | 96 | 1006.9 |
| 20260506085700 | 52 | 312 | 0.0 | 0.0 | 0.00 | 0.14 | 0.01 | 96 | 1007.2 |
| 20260506084926 | 52 | 312 | 0.0 | 0.0 | 0.00 | 0.14 | 0.01 | 96 | 1007.6 |
| 20260506082655 | 52 | 312 | 0.0 | 0.0 | 0.00 | 0.14 | 0.01 | 96 | 1007.7 |
| 20260506081148 | 53 | 312 | 0.0 | 0.0 | 0.00 | 0.14 | 0.01 | 96 | 1007.7 |
| 20260506072643 | 54 | 312 | 0.0 | 0.0 | 0.00 | 0.14 | 0.01 | 96 | 1007.4 |
| 20260506071138 | 54 | 312 | 0.0 | 0.0 | 0.00 | 0.14 | 0.01 | 96 | 1007.5 |
| 20260506061123 | 55 | 312 | 0.0 | 0.0 | 0.01 | 0.14 | 0.01 | 96 | 1007.5 |
| 20260506051120 | 55 | 311 | 0.0 | 1.0 | 0.00 | 0.13 | 0.00 | 96 | 1007.5 |
| 20260506044119 | 55 | 22 | 0.0 | 0.0 | 0.01 | 0.13 | 0.00 | 96 | 1007.3 |
| 20260506042616 | 55 | 104 | 0.0 | 0.0 | 0.01 | 0.13 | 0.00 | 96 | 1007.4 |
| 20260506041847 | 55 | 104 | 0.0 | 0.0 | 0.01 | 0.13 | 0.00 | 95 | 1007.3 |
| 20260506035610 | 55 | 103 | 0.0 | 0.0 | 0.01 | 0.13 | 0.13 | 95 | 1007.1 |
| 20260506034104 | 55 | 103 | 0.0 | 0.0 | 0.00 | 0.12 | 0.12 | 94 | 1007.2 |
| 20260506032603 | 55 | 103 | 0.0 | 0.0 | 0.00 | 0.12 | 0.12 | 94 | 1007.0 |
| 20260506031057 | 55 | 103 | 0.0 | 0.0 | 0.00 | 0.12 | 0.12 | 93 | 1007.0 |
| 20260506030330 | 55 | 101 | 0.0 | 0.0 | 0.00 | 0.12 | 0.12 | 93 | 1006.9 |
| 20260506024051 | 55 | 101 | 0.0 | 0.0 | 0.00 | 0.12 | 0.12 | 93 | 1006.9 |
| 20260506022551 | 56 | 101 | 0.0 | 0.0 | 0.00 | 0.12 | 0.12 | 92 | 1006.9 |
| 20260506021046 | 56 | 101 | 0.0 | 0.0 | 0.00 | 0.12 | 0.12 | 92 | 1006.9 |
| 20260506015546 | 56 | 101 | 0.0 | 0.0 | 0.00 | 0.12 | 0.12 | 92 | 1006.7 |
| 20260506014039 | 56 | 101 | 0.0 | 0.0 | 0.00 | 0.12 | 0.12 | 90 | 1006.6 |
| 20260506012541 | 57 | 101 | 0.0 | 0.0 | 0.00 | 0.12 | 0.12 | 88 | 1006.3 |
| 20260506011037 | 58 | 101 | 0.0 | 0.0 | 0.00 | 0.12 | 0.12 | 88 | 1006.0 |
| 20260506005534 | 59 | 101 | 0.0 | 0.0 | 0.00 | 0.12 | 0.12 | 87 | 1006.0 |
| 20260506004035 | 59 | 101 | 0.0 | 3.0 | 0.00 | 0.12 | 0.12 | 86 | 1005.9 |
| 20260506002534 | 59 | 52 | 0.0 | 1.0 | 0.00 | 0.12 | 0.12 | 87 | 1005.7 |
| 20260506001034 | 59 | 88 | 0.0 | 1.0 | 0.00 | 0.12 | 0.12 | 89 | 1005.8 |
| 20260505235530 | 60 | 288 | 0.0 | 4.0 | 0.00 | 0.12 | 0.12 | 88 | 1005.7 |
| 20260505234030 | 60 | 113 | 1.0 | 6.0 | 0.00 | 0.12 | 0.12 | 88 | 1005.9 |
| 20260505232530 | 60 | 24 | 0.0 | 0.0 | 0.00 | 0.12 | 0.12 | 89 | 1005.8 |
| 20260505231032 | 61 | 24 | 0.0 | 5.0 | 0.00 | 0.12 | 0.12 | 87 | 1005.6 |
| 20260505225532 | 62 | 23 | 0.0 | 4.0 | 0.00 | 0.12 | 0.12 | 87 | 1005.6 |
| 20260505224028 | 63 | 111 | 0.0 | 8.0 | 0.00 | 0.12 | 0.12 | 83 | 1005.1 |
| 20260505222528 | 63 | 51 | 1.0 | 9.0 | 0.00 | 0.12 | 0.12 | 83 | 1005.2 |
| 20260505221024 | 62 | 302 | 1.0 | 8.0 | 0.00 | 0.12 | 0.12 | 87 | 1005.2 |
| 20260505215523 | 62 | 198 | 0.0 | 0.0 | 0.00 | 0.12 | 0.12 | 91 | 1005.3 |
| 20260505214755 | 62 | 198 | 0.0 | 4.0 | 0.01 | 0.12 | 0.12 | 90 | 1005.0 |
| 20260505212522 | 61 | 196 | 2.0 | 5.0 | 0.07 | 0.12 | 0.12 | 91 | 1004.6 |